This is the latest recevied weather packets stored in our database for station/object HB9FHL-13. If no packets are shown the sender has not sent any weather packets the latest 1 day(s).
| Time | Temp. | Humidity | Pressure | Rain* | Wind** | Luminosity | Snow |
|---|---|---|---|---|---|---|---|
| 1778035990 | 11.67° C | - | 1010.6 hPa | 0 mm | - | - | - |
| 1778035389 | 11.67° C | - | 1006.4 hPa | 0 mm | - | - | - |
| 1778035088 | 11.11° C | - | 1007.5 hPa | 0 mm | - | - | - |
| 1778034788 | 11.11° C | - | 1010.8 hPa | 0 mm | - | - | - |
| 1778034487 | 11.67° C | - | 1006.4 hPa | 0 mm | - | - | - |
| 1778034187 | 11.67° C | - | 1006.8 hPa | 0 mm | - | - | - |
| 1778033886 | 11.67° C | - | 1008.8 hPa | 0 mm | - | - | - |
| 1778033586 | 11.67° C | - | 1009 hPa | 0 mm | - | - | - |
| 1778032985 | 12.22° C | - | 1011 hPa | 0 mm | - | - | - |
| 1778032384 | 12.22° C | - | 1008.7 hPa | 0 mm | - | - | - |
| 1778031783 | 12.22° C | - | 1008.7 hPa | 0 mm | - | - | - |
| 1778030882 | 12.78° C | - | 1013.3 hPa | 0 mm | - | - | - |
| 1778029980 | 12.22° C | - | 1009.9 hPa | 0 mm | - | - | - |
| 1778029680 | 12.22° C | - | 1005.4 hPa | 0 mm | - | - | - |
| 1778029077 | 13.33° C | - | 1004.9 hPa | 0 mm | - | - | - |
| 1778028776 | 12.78° C | - | 1005.9 hPa | 0 mm | - | - | - |
| 1778028476 | 11.67° C | - | 1006.5 hPa | 0 mm | - | - | - |
| 1778028175 | 12.22° C | - | 1007.5 hPa | 0 mm | - | - | - |
| 1778027875 | 12.78° C | - | 1009.7 hPa | 0 mm | - | - | - |
| 1778027274 | 12.78° C | - | 1008.7 hPa | 0 mm | - | - | - |
| 1778026673 | 12.78° C | - | 1007.2 hPa | 0 mm | - | - | - |
| 1778026072 | 12.22° C | - | 1009.3 hPa | 0 mm | - | - | - |
| 1778021565 | 13.33° C | - | 1007 hPa | 0 mm | - | - | - |
| 1778020964 | 13.33° C | - | 1011.3 hPa | 0 mm | - | - | - |
| 1778020362 | 13.33° C | - | 1013.2 hPa | 0 mm | - | - | - |
* Rain since midnight (hover to see other rain measurements)
** Current wind speed in m/s (hover to see current wind gust speed)